Regional Weather Roundup
Issued by NWS

Home | Current Version | Previous Version | Graphics & Text | Print | Product List | Glossary On
Versions: 1 2 3 4 5 6 7 8 9 10 11 12 13 14 15 16 17 18 19 20 21 22 23 24 25 26 27 28 29 30 31 32 33 34 35 36 37 38 39 40 41 42 43 44 45 46 47 48 49 50
000
ASUS45 KTFX 261719
RWRMT
MONTANA HOURLY WEATHER ROUNDUP
NATIONAL WEATHER SERVICE GREAT FALLS MT
1019 AM MST FRI DEC 26 2014

NOTE: "FAIR" INDICATES FEW OR NO CLOUDS BELOW 12000 FEET WITH NO
SIGNIFICANT WEATHER AND/OR OBSTRUCTIONS TO VISIBILITY.

* THESE STATIONS ARE NOT UNDER NWS QUALITY CONTROL. THEY DO NOT
   REPORT WEATHER SUCH AS PRECIPITATION OR FOG.

MTZ001>007-043-261800-
WEST OF THE DIVIDE
CITY           SKY/WX    TMP DP  RH WIND       PRES   REMARKS
KALISPELL      CLOUDY    25  23  92 CALM      30.14R
MISSOULA       CLOUDY    21  21 100 W5        30.15R WCI  14
BUTTE          LGT SNOW  16  12  84 CALM      30.03R
MULLAN PASS    LGT SNOW  19  14  81 VRB3      30.02R
* ESSEX        N/A       23  19  85 SE2        N/A
* HAMILTON APT CLOUDY    27  21  78 SE3       30.12R
* LIBBY APT    SUNNY     25  21  85 CALM      30.21R
* LINCOLN      N/A       21  18  88 E4         N/A
* LOOKOUT PASS N/A       21  19  92 N2         N/A
* POLSON       N/A       25  24  96 N/A        N/A
* RONAN APT    PTSUNNY   27  25  92 N/A        N/A
* SEELEY LAKE  N/A       19  17  92 N/A        N/A
* THOMP F APT  SUNNY     17   4  56 N6G13      N/A   WCI   8
* YAAK HILL    N/A       27  24  88 N/A        N/A
$$

MTZ008-052>055-261800-
SOUTHWEST MONTANA
CITY           SKY/WX    TMP DP  RH WIND       PRES   REMARKS
BOZEMAN        CLOUDY    14  10  84 N6        30.07R WCI   5
DILLON         CLOUDY    16  10  77 S5        30.02R WCI   8
* W YELLOWSTON PTCLDY   -15 -22  70 N/A        N/A
* THREE FORKS  CLOUDY    18 -22  15 N/A        N/A
* TWIN BRIDGES CLOUDY    16   7  67 N/A        N/A
* BOULDER HILL N/A       17  12  81 N6         N/A   WCI   8
* MONIDA PASS  N/A       13   6  73 N7         N/A   WCI   3
* RAYNOLDS PAS N/A       10 -29  14 N/A        N/A
* WHITEHALL    N/A       18  12  77 W2         N/A
* WISE RIVER   N/A       12   8  84 W3         N/A
$$

MTZ009>010-012-014-046-048-049-054-261800-
EAST SLOPES AND CENTRAL MONTANA
CITY           SKY/WX    TMP DP  RH WIND       PRES   REMARKS
CUT BANK       PTSUNNY   18  12  77 NW10      30.09S WCI   6
GREAT FALLS    LGT SNOW  19  16  88 N14       30.11R VSB 3/4  WCI   5
HELENA         LGT SNOW  21  18  88 W3        30.10R VSB 3
MALMSTROM AFB  LGT SNOW  19  18  96 NW10      30.15R VSB 3    WCI   8
* CONRAD       PTCLDY    16  12  84 W9         N/A   WCI   5
* DEARBORN     N/A       23  22  96 W1         N/A
* EAST GLACIER N/A       16  12  84 NW4        N/A
* MONARCH      N/A       16  12  84 NW16       N/A   WCI   1
* PENDROY      N/A       18  17  96 N7         N/A   WCI   9
* ROGERS PASS  N/A       17  14  88 SW2        N/A
* SWEET GRASS  N/A       17  16  96 VRB6       N/A   WCI   8
* WHITE SULPH  N/A       16  11  81 S1         N/A
$$

MTZ011-013-016-021-035-040-045-047-050-051-261800-
NORTH CENTRAL MONTANA
CITY           SKY/WX    TMP DP  RH WIND       PRES   REMARKS
HAVRE          CLOUDY    19  16  88 NW8       30.12R WCI   9
LEWISTOWN      LGT SNOW  21  18  88 NW9       30.05R WCI  11
* N BAR RANCH  CLOUDY    23  16  74 NW10      30.00R WCI  13
* CHINOOK      PTCLDY    23  19  85 W9        30.12R WCI  13
* CHESTER      N/A       20  15  81 N/A        N/A
* DENTON       N/A       22  18  85 NW8G14     N/A   WCI  13
* GEYSER       N/A       18  16  92 W20        N/A   WCI   2
* JUDITH GAP   N/A       18  18 100 W3         N/A
* LOMA         N/A       22  18  85 SW8        N/A   WCI  13
$$

MTZ017>020-022>027-061-062-261800-
NORTHEAST MONTANA
CITY           SKY/WX    TMP DP  RH WIND       PRES   REMARKS
GLASGOW        PTCLDY    21  16  81 E12       30.09R WCI   9
GLENDIVE       CLOUDY    18  12  77 CALM      30.14R
JORDAN         CLOUDY    25  19  78 SW7       30.07R WCI  17
SIDNEY         CLOUDY    14  10  84 E5        30.19S WCI   6
WOLF POINT     CLOUDY    16  10  77 E10       30.16R WCI   4
* BEAVER HILL  N/A       21  14  74 S5         N/A   WCI  14
* CIRCLE       N/A       23  20  88 N/A        N/A
* LINDSAY DVD  N/A       23  17  78 S6         N/A   WCI  16
* NAVAJO       N/A       12   9  88 SW6        N/A   WCI   2
* PLENTYWOOD A SUNNY     16  12  84 CALM      30.15S
* POPLAR APT   PTCLDY    12  10  92 E8        30.16S
* SACO         N/A       20  17  88 E6         N/A   WCI  12
* SCOBEY APT   SUNNY     10   3  73 N/A        N/A
$$

MTZ028>042-056>058-261800-
SOUTHCENTRAL AND SOUTHEAST MONTANA
CITY           SKY/WX    TMP DP  RH WIND       PRES   REMARKS
BAKER          CLOUDY    21  16  81 SW7       30.12R WCI  12
BILLINGS       PTCLDY     9   5  84 SW17      30.05R WCI  -9
LIVINGSTON     CLOUDY    16  10  77 NW7       30.03R WCI   6
MILES CITY     SUNNY     25  19  78 SE7       30.11R WCI  17
* BIG TIMBER A CLOUDY    19  12  74 SW10      30.03R WCI   8
* FORSYTH APT  PTCLDY    21  16  81 CALM      30.11R
* LAUREL APT   PTSUNNY   12   5  73 SW10       N/A   WCI  -1
* ROUNDUP APT  PTSUNNY    9   1  70 N/A        N/A
* ALZADA       N/A       19  12  74 W1G6       N/A
* HYSHAM       N/A       16  13  88 W2         N/A
* LAME DEER    N/A       17  15  92 S5         N/A   WCI   9
* REED POINT   N/A        7   5  91 W5         N/A   WCI  -2
* ROSCOE HILL  N/A       21   1  41 N/A        N/A
$$

REGIONAL REPORTS...DAKOTAS
CITY           SKY/WX    TMP DP  RH WIND       PRES   REMARKS
WILLISTON      CLOUDY    14  10  84 VRB3      30.19R
DICKINSON      SUNNY     21  12  68 W5        30.11R WCI  14
BEACH          CLOUDY    21  18  88 SW3       30.13R
CROSBY         LGT SNOW   5   1  83 NE5       30.20F VSB 3    WCI  -5
TIOGA          LGT SNOW  12  12 100 NW7       30.18S WCI   1
WATFORD CITY   LGT SNOW  14  10  84 NW5       30.16R WCI   6
BISMARCK       LGT SNOW  14  10  84 E3        30.22R
GRAND FORKS    LGT SNOW  19  16  88 N13       30.20R WCI   6
FARGO          CLOUDY    27  19  72 N12       30.17S WCI  16
BUFFALO SD     PTCLDY    19  14  81 N6        30.05R WCI  11
RAPID CITY     CLOUDY    19  16  88 N10       30.11R WCI   8
$$

REGIONAL REPORTS...WYOMING/IDAHO/WASHINGTON
CITY           SKY/WX    TMP DP  RH WIND       PRES   REMARKS
GILLETTE       CLOUDY    18  12  77 CALM      30.03S
SHERIDAN       PTCLDY    10   3  73 CALM      30.05R
CODY           CLOUDY    19  14  81 CALM      30.01R
YELLOWSTONE LA PTCLDY     0  -2  91 CALM      29.92R
SALMON         CLOUDY    21  18  88 CALM      30.12R
MULLAN PASS    LGT SNOW  19  14  81 VRB3      30.02S
SAND POINT     SUNNY     27  27 100 CALM      30.23R
SPOKANE        SUNNY     21  19  92 CALM      30.21R
$$

REGIONAL REPORTS...ALBERTA
CITY           SKY/WX    TMP DP  RH WIND       PRES   REMARKS
CALGARY        SUNNY     18  10  71 SW7       30.04F WCI   9
LETHBRIDGE     SUNNY     16  14  92 SW8       30.12S WCI   5
MEDICINE HAT   SUNNY     14  12  92 SW8       30.15R WCI   3
EDMONTON       SUNNY      7   3  83 S5        30.05S WCI  -2
WATERTON GATE  N/A       12   7  80 NE2        N/A
CARDSTON       N/A       14  14 100 SW8        N/A   WCI   3
$$

REGIONAL REPORTS...SASKATCHEWAN
CITY           SKY/WX    TMP DP  RH WIND       PRES   REMARKS
SWIFT CURRENT  LGT SNOW  12  10  92 SW6       30.07R WCI   2
REGINA         PTSUNNY    3   0  87 SE5       30.18R WCI  -7
VAL MARIE      N/A       23  19  85 CALM       N/A
ASSINIBOIA     N/A        7   3  83 S1         N/A

$$



USA.gov is the U.S. government's official web portal to all federal, state and local government web resources and services.